Weather History for Rionegro, Colombia

Change the Weather History Date:

Wednesday, January 16, 2013

  Actual Average Record
Temperature  
Mean Temperature 62 °F -  
Max Temperature 68 °F 69 °F 75 °F (1998)
Min Temperature 57 °F 54 °F 51 °F (1999)
Degree Days  
Heating Degree Days 2    
Growing Degree Days 12 (Base 50)    
Moisture  
Dew Point 57 °F    
Average Humidity 85    
Maximum Humidity 94    
Minimum Humidity 54    
Precipitation  
Precipitation 0.00 in - - ()
Sea Level Pressure  
Sea Level Pressure 30.22 in    
Wind  
Wind Speed 3 mph ()    
Max Wind Speed 7 mph    
Max Gust Speed -    
Visibility 4.6 miles    
Events Fog    
Averages and records for this station are not official NWS values.
T = Trace of Precipitation, MM = Missing Value Source: Averaged Metar Reports

Daily Weather History Graph

Daily Weather History Graph

Search for Another Location

Airport:

Trip Planner

Search our weather history database for the weather conditions in past years. The results will help you decide how hot, cold, wet, or windy it might be!

Date:

Astronomy

Jan. 16, 2013 Rise Set
Actual Time 6:17 AM COT 6:05 PM COT
Civil Twilight 5:55 AM COT 6:28 PM COT
Nautical Twilight 5:29 AM COT 6:53 PM COT
Astronomical Twilight 5:03 AM COT 7:19 PM COT
Moon 10:07 AM COT (1/16) 10:33 PM COT (1/16)
Length of Visible Light 12h 32m
Length of Day
11h 48m
Waxing Crescent, 28% of the Moon is Illuminated
Jan 16
Waxing Crescent
Jan 18
First Quarter
Jan 26
Full
Feb 3
Last Quarter
Feb 10
New

Hourly Weather History & Observations

Time (COT) Temp. Dew Point Humidity Pressure Visibility Wind Dir Wind Speed Gust Speed Precip Events Conditions
12:00 AM 59.0 °F 57.2 °F 94% 30.23 in 4.3 mi Calm Calm - N/A   Mostly Cloudy
1:00 AM 59 °F 57 °F 91%  in 4 mi NE 4.5 mph - -   Haze
1:00 AM 59.0 °F 57.2 °F 94% 30.22 in 4.3 mi NE 3.5 mph - N/A   Scattered Clouds
2:00 AM 59.0 °F 57.2 °F 94% 30.21 in 4.3 mi Calm Calm - N/A   Scattered Clouds
3:00 AM 59.0 °F 57.2 °F 94% 30.20 in 3.7 mi ENE 6.9 mph - N/A   Scattered Clouds
4:00 AM 58 °F 56 °F 92%  in 4 mi Calm Calm - - Fog Light Fog
4:00 AM 59.0 °F 57.2 °F 94% 30.20 in 3.7 mi Calm Calm - N/A Fog Fog
5:00 AM 59.0 °F 57.2 °F 94% 30.21 in 4.3 mi Variable 2.3 mph - N/A Fog Fog
5:30 AM 59.0 °F 57.2 °F 94% 30.23 in 4.3 mi Calm Calm - N/A Fog Fog
6:00 AM 59.0 °F 57.2 °F 94% 30.23 in 3.7 mi Calm Calm - N/A Fog Fog
7:00 AM 58 °F 56 °F 89%  in 2 mi Calm Calm - -   Haze
7:00 AM 59.0 °F 55.4 °F 88% 30.24 in 2.5 mi Calm Calm - N/A   Haze
8:00 AM 59.0 °F 57.2 °F 94% 30.26 in 2.5 mi Calm Calm - N/A   Haze
9:00 AM 60.8 °F 57.2 °F 88% 30.27 in 3.1 mi ENE 4.6 mph - N/A   Haze
10:00 AM 59 °F 57 °F 89%  in 3 mi NE 6.7 mph - -   Haze
10:00 AM 59.0 °F 57.2 °F 94% 30.27 in 3.1 mi NE 6.9 mph - N/A   Haze
11:00 AM 60.8 °F 55.4 °F 82% 30.27 in 3.7 mi NE 6.9 mph - N/A   Scattered Clouds
12:00 PM 62.6 °F 53.6 °F 72% 30.25 in 6.2 mi Variable 2.3 mph - N/A   Scattered Clouds
1:00 PM 64 °F 56 °F 69%  in 6 mi NE 6.7 mph - -   Haze
2:00 PM 66.2 °F 55.4 °F 68% 30.19 in 6.2 mi NNE 6.9 mph - N/A   Mostly Cloudy
3:00 PM 68.0 °F 55.4 °F 64% 30.17 in 6.2 mi NE 4.6 mph - N/A   Scattered Clouds
4:00 PM 68 °F 55 °F 54%  in 12 mi East 4.5 mph - -   Haze
4:00 PM 68.0 °F 55.4 °F 64% 30.17 in 6.2 mi East 4.6 mph - N/A   Scattered Clouds
5:00 PM 66.2 °F 55.4 °F 68% 30.18 in 6.2 mi East 6.9 mph - N/A   Scattered Clouds
6:00 PM 64.4 °F 57.2 °F 77% 30.20 in 6.2 mi ENE 6.9 mph - N/A   Scattered Clouds
7:00 PM 62 °F 58 °F 83%  in 5 mi ENE 6.7 mph - -   Haze
7:00 PM 62.6 °F 59.0 °F 88% 30.22 in 5.0 mi ENE 6.9 mph - N/A   Mostly Cloudy
9:00 PM 60.8 °F 57.2 °F 88% 30.25 in 4.3 mi Calm Calm - N/A   Mostly Cloudy
10:00 PM 60 °F 57 °F 88%  in 4 mi Calm Calm - -   Haze
10:00 PM 59.0 °F 57.2 °F 94% 30.25 in 3.7 mi Calm Calm - N/A   Mostly Cloudy
11:00 PM 60.8 °F 57.2 °F 88% 30.25 in 3.7 mi NNW 4.6 mph - N/A   Mostly Cloudy